RADUGA 9 [-]

Last updated on July 6, 2021, 3:35 p.m. UTC

1 12618U 81069A   21186.89281132 -.00000200  00000-0  00000-0 0  9997
2 12618  10.7313 311.5390 0004982 123.6171 260.1906  1.00194831 29227
UTC
Height (km)
Latitude
Longitude
Inclination
Orbital Period
UTC large
Height (km)
Speed (km/s)
/
Latitude / Longitude
Inclination (degrees)
Orbital Period (minutes)
Azimuth
Elevation
Range (km)
Doppler Factor
iOS Compass Heading
iOS Angle